RYR004 LIRI-LSZA

Flight info

Callsign RYR004
Flight time 1h 16m
Altitude 32000
Route SOR DCT TEA DCT EVULI DCT PRU DCT GAVRA DCT BOA DCT BSM DCT ORI
Aircraft B738/M-SDE2E3FGHIRWXY/LB1

Departure

Time 2026-04-22 15:14
Airport Salerno Costa d'Amalfi Airport (LIRI)

Arrival

Time 2026-04-22 16:30
Airport Lugano Airport (LSZA)
Time Latitude Longitude Altitude Speed Heading
2026-04-22 14:58 40.62128 14.92062 83 ft 0 kts 141°
2026-04-22 15:08 40.62131 14.92059 87 ft 3 kts 141°
2026-04-22 15:08 40.62152 14.92037 86 ft 4 kts 141°
2026-04-22 15:08 40.62173 14.92015 88 ft 4 kts 141°
2026-04-22 15:09 40.62190 14.91994 87 ft 4 kts 116°
2026-04-22 15:09 40.62192 14.91989 86 ft 0 kts 104°
2026-04-22 15:09 40.62194 14.91982 85 ft 4 kts 85°
2026-04-22 15:09 40.62189 14.91962 88 ft 4 kts 52°
2026-04-22 15:10 40.62177 14.91942 86 ft 0 kts 52°
2026-04-22 15:12 40.62177 14.91943 86 ft 0 kts 51°
2026-04-22 15:12 40.62186 14.91957 84 ft 4 kts 50°
2026-04-22 15:12 40.62214 14.91977 95 ft 5 kts 351°
2026-04-22 15:12 40.62258 14.91942 85 ft 9 kts 318°
2026-04-22 15:13 40.62292 14.91859 86 ft 12 kts 284°
2026-04-22 15:13 40.62284 14.91743 86 ft 17 kts 231°
2026-04-22 15:13 40.62092 14.91419 83 ft 82 kts 232°
2026-04-22 15:13 40.61597 14.90585 82 ft 149 kts 232°
2026-04-22 15:14 40.60859 14.89349 378 ft 178 kts 232°
2026-04-22 15:14 40.60061 14.88017 1011 ft 191 kts 232°
2026-04-22 15:14 40.59228 14.86614 1734 ft 202 kts 233°
2026-04-22 15:14 40.58312 14.85140 2351 ft 215 kts 231°
2026-04-22 15:15 40.57295 14.83542 2617 ft 239 kts 231°
2026-04-22 15:15 40.56193 14.81818 2947 ft 259 kts 231°
2026-04-22 15:15 40.54992 14.79953 3552 ft 270 kts 232°
2026-04-22 15:15 40.53793 14.78095 4637 ft 264 kts 233°
2026-04-22 15:16 40.52605 14.76241 5465 ft 267 kts 233°
2026-04-22 15:16 40.51429 14.74388 5863 ft 270 kts 236°
2026-04-22 15:16 40.50696 14.72161 6590 ft 263 kts 270°
2026-04-22 15:16 40.51057 14.69894 7500 ft 252 kts 299°
2026-04-22 15:17 40.52086 14.68071 8386 ft 251 kts 316°
2026-04-22 15:17 40.53483 14.66655 9220 ft 254 kts 323°
2026-04-22 15:17 40.54939 14.65345 10054 ft 256 kts 323°
2026-04-22 15:17 40.56449 14.64010 10542 ft 271 kts 323°
2026-04-22 15:18 40.58089 14.62556 10716 ft 295 kts 323°
2026-04-22 15:18 40.59860 14.60979 10902 ft 317 kts 323°
2026-04-22 15:18 40.61726 14.59309 11056 ft 337 kts 323°
2026-04-22 15:18 40.63709 14.57525 11290 ft 351 kts 323°
2026-04-22 15:19 40.65743 14.55694 11917 ft 354 kts 323°
2026-04-22 15:19 40.67764 14.53881 12772 ft 353 kts 323°
2026-04-22 15:19 40.69804 14.52040 13545 ft 354 kts 323°
2026-04-22 15:19 40.71821 14.50214 14195 ft 356 kts 322°
2026-04-22 15:20 40.73876 14.48348 14781 ft 359 kts 322°
2026-04-22 15:20 40.75943 14.46470 15351 ft 362 kts 322°
2026-04-22 15:20 40.78032 14.44570 15938 ft 364 kts 322°
2026-04-22 15:20 40.80102 14.42685 16488 ft 366 kts 322°
2026-04-22 15:21 40.82214 14.40762 17051 ft 368 kts 322°
2026-04-22 15:21 40.84308 14.38853 17619 ft 371 kts 322°
2026-04-22 15:21 40.86461 14.36888 18184 ft 374 kts 322°
2026-04-22 15:21 40.88614 14.34922 18762 ft 374 kts 322°
2026-04-22 15:22 40.90749 14.32972 19291 ft 375 kts 321°
2026-04-22 15:22 40.92907 14.30998 19711 ft 378 kts 321°
2026-04-22 15:22 40.95055 14.29031 20114 ft 382 kts 321°
2026-04-22 15:22 40.97258 14.27013 20541 ft 384 kts 321°
2026-04-22 15:23 40.99472 14.24983 20973 ft 387 kts 321°
2026-04-22 15:23 41.01639 14.22995 21373 ft 389 kts 321°
2026-04-22 15:23 41.03887 14.20931 21723 ft 393 kts 321°
2026-04-22 15:23 41.06153 14.18846 21992 ft 398 kts 321°
2026-04-22 15:24 41.08420 14.16762 22385 ft 400 kts 321°
2026-04-22 15:24 41.10719 14.14645 22801 ft 401 kts 321°
2026-04-22 15:24 41.13019 14.12528 23365 ft 400 kts 321°
2026-04-22 15:24 41.15308 14.10419 23771 ft 401 kts 321°
2026-04-22 15:25 41.17587 14.08314 24023 ft 404 kts 321°
2026-04-22 15:25 41.19884 14.06190 24325 ft 406 kts 321°
2026-04-22 15:25 41.22212 14.04038 24630 ft 408 kts 321°
2026-04-22 15:25 41.24551 14.01873 24922 ft 410 kts 321°
2026-04-22 15:26 41.26806 13.99786 25216 ft 411 kts 321°
2026-04-22 15:26 41.29137 13.97630 25509 ft 413 kts 322°
2026-04-22 15:26 41.31618 13.95606 25777 ft 418 kts 326°
2026-04-22 15:26 41.34158 13.93799 26088 ft 420 kts 327°
2026-04-22 15:27 41.36762 13.91995 26557 ft 417 kts 327°
2026-04-22 15:27 41.39320 13.90232 27147 ft 411 kts 327°
2026-04-22 15:27 41.41829 13.88491 27575 ft 410 kts 327°
2026-04-22 15:27 41.44364 13.86715 27914 ft 410 kts 327°
2026-04-22 15:28 41.46894 13.84931 28249 ft 410 kts 327°
2026-04-22 15:28 41.49394 13.83159 28582 ft 410 kts 327°
2026-04-22 15:28 41.51924 13.81362 28963 ft 409 kts 327°
2026-04-22 15:28 41.54411 13.79593 29403 ft 408 kts 327°
2026-04-22 15:29 41.56916 13.77809 29840 ft 406 kts 327°
2026-04-22 15:29 41.59383 13.76049 30271 ft 403 kts 326°
2026-04-22 15:29 41.61853 13.74286 30726 ft 398 kts 326°
2026-04-22 15:30 41.66724 13.70811 31459 ft 394 kts 326°
2026-04-22 15:30 41.69113 13.69101 31737 ft 394 kts 326°
2026-04-22 15:30 41.71539 13.67362 32003 ft 394 kts 327°
2026-04-22 15:31 41.76398 13.63876 32056 ft 395 kts 327°
2026-04-22 15:31 41.81222 13.60413 32077 ft 393 kts 326°
2026-04-22 15:32 41.86020 13.56962 32078 ft 392 kts 326°
2026-04-22 15:32 41.90829 13.53496 32072 ft 390 kts 326°
2026-04-22 15:33 41.95610 13.50045 32072 ft 390 kts 326°
2026-04-22 15:33 42.00336 13.46627 32080 ft 389 kts 326°
2026-04-22 15:34 42.05088 13.43184 32079 ft 388 kts 326°
2026-04-22 15:34 42.09867 13.39716 32093 ft 389 kts 326°
2026-04-22 15:35 42.13835 13.36833 32089 ft 390 kts 326°
2026-04-22 15:35 42.19309 13.32564 32075 ft 389 kts 322°
2026-04-22 15:36 42.23867 13.28535 32066 ft 391 kts 322°
2026-04-22 15:36 42.28402 13.24506 32094 ft 391 kts 322°
2026-04-22 15:37 42.32941 13.20487 32062 ft 389 kts 322°
2026-04-22 15:37 42.37452 13.16496 32066 ft 388 kts 322°
2026-04-22 15:38 42.41957 13.12506 32040 ft 388 kts 322°
2026-04-22 15:38 42.48721 13.06502 32079 ft 389 kts 322°
2026-04-22 15:39 42.53231 13.02492 32065 ft 386 kts 322°
2026-04-22 15:39 42.57633 12.98570 32058 ft 385 kts 322°
2026-04-22 15:40 42.62093 12.94587 32075 ft 384 kts 322°
2026-04-22 15:40 42.66546 12.90605 32066 ft 383 kts 322°
2026-04-22 15:41 42.71016 12.86595 32101 ft 384 kts 322°
2026-04-22 15:41 42.75461 12.82611 32074 ft 384 kts 321°
2026-04-22 15:42 42.79939 12.78596 32083 ft 384 kts 322°
2026-04-22 15:42 42.84381 12.74593 32080 ft 384 kts 321°
2026-04-22 15:43 42.88850 12.70560 32093 ft 384 kts 321°
2026-04-22 15:43 42.93285 12.66553 32123 ft 384 kts 321°
2026-04-22 15:44 42.97731 12.62528 32111 ft 384 kts 321°
2026-04-22 15:44 43.02185 12.58489 32101 ft 384 kts 321°
2026-04-22 15:45 43.06613 12.54466 32105 ft 383 kts 321°
2026-04-22 15:45 43.11037 12.50427 32103 ft 382 kts 320°
2026-04-22 15:46 43.15351 12.46135 32141 ft 381 kts 319°
2026-04-22 15:46 43.19579 12.41811 32115 ft 380 kts 319°
2026-04-22 15:47 43.23814 12.37499 32108 ft 379 kts 319°
2026-04-22 15:47 43.28054 12.33199 32113 ft 381 kts 319°
2026-04-22 15:48 43.32339 12.28853 32111 ft 382 kts 319°
2026-04-22 15:48 43.36606 12.24522 32123 ft 382 kts 319°
2026-04-22 15:49 43.40868 12.20189 32138 ft 381 kts 319°
2026-04-22 15:49 43.45121 12.15857 32137 ft 380 kts 319°
2026-04-22 15:50 43.49388 12.11500 32129 ft 380 kts 319°
2026-04-22 15:50 43.53618 12.07175 32137 ft 379 kts 319°
2026-04-22 15:51 43.57842 12.02847 32112 ft 379 kts 319°
2026-04-22 15:51 43.62007 11.98571 32148 ft 383 kts 319°
2026-04-22 15:52 43.66290 11.94169 32134 ft 383 kts 319°
2026-04-22 15:52 43.70546 11.89785 32154 ft 383 kts 319°
2026-04-22 15:53 43.74825 11.85371 32144 ft 383 kts 319°
2026-04-22 15:53 43.79258 11.81264 32138 ft 388 kts 328°
2026-04-22 15:54 43.84093 11.77975 32151 ft 388 kts 328°
2026-04-22 15:54 43.88927 11.74648 32139 ft 386 kts 327°
2026-04-22 15:55 43.93710 11.71331 32161 ft 385 kts 327°
2026-04-22 15:55 43.98480 11.68009 32157 ft 384 kts 327°
2026-04-22 15:56 44.03260 11.64673 32161 ft 383 kts 327°
2026-04-22 15:56 44.07992 11.61367 32162 ft 382 kts 327°
2026-04-22 15:57 44.12718 11.58054 32156 ft 380 kts 327°
2026-04-22 15:57 44.16660 11.55296 32135 ft 379 kts 327°
2026-04-22 15:58 44.22164 11.51423 32148 ft 380 kts 327°
2026-04-22 15:58 44.26879 11.48105 32138 ft 381 kts 327°
2026-04-22 15:59 44.30841 11.45311 32163 ft 383 kts 327°
2026-04-22 15:59 44.35588 11.41946 32140 ft 384 kts 327°
2026-04-22 16:00 44.40377 11.38569 32154 ft 385 kts 327°
2026-04-22 16:00 44.45159 11.35174 32155 ft 386 kts 327°
2026-04-22 16:01 44.49929 11.31788 32145 ft 386 kts 328°
2026-04-22 16:01 44.54637 11.28180 32149 ft 382 kts 321°
2026-04-22 16:02 44.58869 11.23687 32127 ft 381 kts 319°
2026-04-22 16:02 44.63075 11.19208 32134 ft 381 kts 319°
2026-04-22 16:03 44.67306 11.14711 32140 ft 382 kts 320°
2026-04-22 16:03 44.71566 11.10184 32141 ft 382 kts 320°
2026-04-22 16:04 44.75795 11.05684 32145 ft 382 kts 320°
2026-04-22 16:04 44.80017 11.01182 32144 ft 382 kts 320°
2026-04-22 16:05 44.84182 10.96733 32151 ft 382 kts 320°
2026-04-22 16:05 44.88408 10.92208 32163 ft 383 kts 320°
2026-04-22 16:06 44.92654 10.87654 32152 ft 385 kts 320°
2026-04-22 16:06 44.96908 10.83084 32150 ft 386 kts 320°
2026-04-22 16:07 45.01191 10.78473 32154 ft 386 kts 320°
2026-04-22 16:07 45.05444 10.73886 32150 ft 386 kts 320°
2026-04-22 16:08 45.09704 10.69284 32160 ft 386 kts 320°
2026-04-22 16:08 45.14002 10.64630 32158 ft 387 kts 320°
2026-04-22 16:09 45.18286 10.59982 32150 ft 388 kts 320°
2026-04-22 16:09 45.22569 10.55326 32151 ft 388 kts 320°
2026-04-22 16:10 45.26832 10.50684 32125 ft 389 kts 320°
2026-04-22 16:10 45.29005 10.48312 31477 ft 393 kts 320°
2026-04-22 16:10 45.31169 10.45951 30805 ft 390 kts 320°
2026-04-22 16:11 45.33332 10.43586 30047 ft 390 kts 320°
2026-04-22 16:11 45.35462 10.41256 29342 ft 387 kts 320°
2026-04-22 16:11 45.37582 10.38935 28727 ft 383 kts 320°
2026-04-22 16:11 45.39684 10.36633 28177 ft 377 kts 321°
2026-04-22 16:12 45.41744 10.34356 27625 ft 372 kts 319°
2026-04-22 16:12 45.43592 10.31839 27073 ft 369 kts 312°
2026-04-22 16:12 45.45228 10.28988 26146 ft 375 kts 305°
2026-04-22 16:12 45.46615 10.25845 25538 ft 374 kts 303°
2026-04-22 16:13 45.47969 10.22676 25012 ft 380 kts 303°
2026-04-22 16:13 45.49338 10.19462 24356 ft 382 kts 303°
2026-04-22 16:13 45.50733 10.16191 23523 ft 386 kts 303°
2026-04-22 16:13 45.52136 10.12910 22793 ft 385 kts 303°
2026-04-22 16:14 45.53517 10.09682 22155 ft 383 kts 303°
2026-04-22 16:14 45.54906 10.06439 21588 ft 379 kts 303°
2026-04-22 16:14 45.56264 10.03267 21055 ft 376 kts 303°
2026-04-22 16:14 45.57632 10.00071 20548 ft 373 kts 303°
2026-04-22 16:15 45.58927 9.97040 20056 ft 370 kts 303°
2026-04-22 16:15 45.60267 9.93905 19558 ft 368 kts 303°
2026-04-22 16:15 45.61589 9.90806 19062 ft 367 kts 303°
2026-04-22 16:15 45.62924 9.87674 18567 ft 368 kts 303°
2026-04-22 16:16 45.64241 9.84522 17997 ft 371 kts 300°
2026-04-22 16:16 45.65115 9.81045 17470 ft 382 kts 286°
2026-04-22 16:16 45.65716 9.77300 16937 ft 384 kts 285°
2026-04-22 16:16 45.66337 9.73590 16408 ft 381 kts 286°
2026-04-22 16:17 45.66975 9.69974 15905 ft 377 kts 286°
2026-04-22 16:17 45.67671 9.66366 15401 ft 373 kts 289°
2026-04-22 16:17 45.68509 9.62848 14907 ft 369 kts 291°
2026-04-22 16:17 45.69379 9.59438 14421 ft 367 kts 292°
2026-04-22 16:18 45.70259 9.56023 13927 ft 364 kts 292°
2026-04-22 16:18 45.71138 9.52579 13363 ft 362 kts 292°
2026-04-22 16:18 45.71976 9.49249 12847 ft 359 kts 291°
2026-04-22 16:18 45.72814 9.45883 12365 ft 357 kts 291°
2026-04-22 16:19 45.73641 9.42538 11845 ft 354 kts 291°
2026-04-22 16:19 45.74450 9.39252 11373 ft 352 kts 291°
2026-04-22 16:19 45.75257 9.35963 11081 ft 343 kts 291°
2026-04-22 16:19 45.76026 9.32816 10946 ft 332 kts 291°
2026-04-22 16:20 45.76782 9.29726 10789 ft 322 kts 291°
2026-04-22 16:20 45.77505 9.26762 10664 ft 312 kts 291°
2026-04-22 16:20 45.78212 9.23867 10532 ft 303 kts 292°
2026-04-22 16:20 45.78901 9.21043 10405 ft 295 kts 292°
2026-04-22 16:21 45.79561 9.18333 10282 ft 286 kts 292°
2026-04-22 16:21 45.80208 9.15667 10177 ft 278 kts 292°
2026-04-22 16:21 45.80839 9.13046 9889 ft 276 kts 291°
2026-04-22 16:21 45.81443 9.10462 9579 ft 275 kts 291°
2026-04-22 16:22 45.82655 9.05258 8894 ft 270 kts 290°
2026-04-22 16:22 45.83239 9.02750 8600 ft 263 kts 290°
2026-04-22 16:22 45.83806 9.00312 8273 ft 257 kts 290°
2026-04-22 16:23 45.84902 8.95624 7552 ft 250 kts 289°
2026-04-22 16:23 45.85434 8.93350 7453 ft 231 kts 289°
2026-04-22 16:23 45.85927 8.91239 7330 ft 213 kts 289°
2026-04-22 16:24 45.86376 8.89315 7186 ft 197 kts 289°
2026-04-22 16:24 45.87338 8.85836 6586 ft 181 kts 313°
2026-04-22 16:24 45.88447 8.85164 6033 ft 179 kts
2026-04-22 16:25 45.89540 8.85908 5678 ft 174 kts 34°
2026-04-22 16:25 45.91892 8.86776 4604 ft 178 kts 25°
2026-04-22 16:25 45.92974 8.87533 4168 ft 168 kts 21°
2026-04-22 16:26 45.94062 8.88042 3635 ft 165 kts 18°
2026-04-22 16:26 45.95135 8.88524 3253 ft 156 kts 17°
2026-04-22 16:26 45.96167 8.88969 2773 ft 153 kts 19°
2026-04-22 16:26 45.97124 8.89430 2469 ft 139 kts 24°
2026-04-22 16:27 45.97924 8.90180 2408 ft 142 kts 44°
2026-04-22 16:27 45.98660 8.91200 2598 ft 150 kts 46°
2026-04-22 16:27 45.99356 8.92258 2713 ft 142 kts 49°
2026-04-22 16:27 46.00027 8.93292 2768 ft 145 kts 50°
2026-04-22 16:28 46.00729 8.94390 2822 ft 151 kts 45°
2026-04-22 16:28 46.01559 8.95306 2931 ft 152 kts 37°
2026-04-22 16:28 46.02430 8.96120 2876 ft 146 kts 22°
2026-04-22 16:28 46.03429 8.96122 2605 ft 152 kts 335°
2026-04-22 16:29 46.04153 8.95033 2205 ft 154 kts 283°
2026-04-22 16:29 46.04078 8.93584 1946 ft 144 kts 241°
2026-04-22 16:29 46.03415 8.92568 1661 ft 137 kts 208°
2026-04-22 16:29 46.02551 8.92107 1377 ft 132 kts 198°
2026-04-22 16:30 46.01980 8.91817 1229 ft 130 kts 197°
2026-04-22 16:30 46.00854 8.91268 921 ft 124 kts 198°
2026-04-22 16:30 46.00179 8.90939 902 ft 50 kts 199°
2026-04-22 16:30 46.00114 8.90904 902 ft 0 kts 246°
2026-04-22 16:31 46.00124 8.90889 902 ft 6 kts 325°
2026-04-22 16:31 46.00147 8.90841 901 ft 5 kts 276°
2026-04-22 16:31 46.00149 8.90809 902 ft 0 kts 275°
2026-04-22 16:31 46.00150 8.90806 902 ft 1 kts 289°
2026-04-22 16:32 46.00154 8.90762 902 ft 7 kts 278°
2026-04-22 16:32 46.00170 8.90747 904 ft 2 kts
2026-04-22 16:32 46.00190 8.90754 902 ft 1 kts 20°
2026-04-22 16:32 46.00191 8.90754 902 ft 0 kts 20°